{"data":{"norad_id":69246,"epoch":"2026-09-19T04:00:49.585248Z","epoch_age_seconds":142073,"freshness":"FRESH","line1":"1 69246U 26117J   26262.16724057  .00027038  00000+0  80822-3 0  9996","line2":"2 69246  53.1579 159.8848 0001207  89.3554 270.7587 15.34410114 17464","mean_motion":15.34410114,"eccentricity":0.0001207,"inclination_deg":53.1579,"raan_deg":159.8848,"arg_perigee_deg":89.3554,"mean_anomaly_deg":270.7587,"bstar":0.00080822,"rev_number":1746,"period_min":93.847139487768,"perigee_km":461.84749364414,"apogee_km":463.49886522146,"semimajor_km":6840.8101794328,"source":"CELESTRAK","updated_at":"2026-09-20T09:00:44.148888Z"}}